STARLINK-32917, 62921

Orbit data source: Space-Track

STARLINK-32917, 62921 is a payload satellite owned by SpaceX/Seattle (US) in LEO that was launched on Sat, 08 Feb 2025 UTC via an FALCON 9 launch vehicle from the Air Force Eastern Test Range (AFETR). Payload-class satellites include a variety of spacecraft equipped with specific instruments for various scientific and technological missions. These include communications satellites like Starlink; space stations such as the ISS; scientific satellites like the Hubble; Earth observation satellites from companies like Planet Labs, Umbra, and HawkEye 360; GPS; miniature CubeSats for education and research; and military/defense satellites.

Loading next visibility...
Identifier
62921, 2025-027Q
Orbit
LEO
Country
Flag of USUS
Related business
Manufacturer
SpaceX/Seattle
Mission
Operational Commercial Communications
Bus & Motor
STARLINK V2M, Unknown motor
Mass
730 kg wet, ~700 kg dry
Launch date (UTC)
2025-02-08 (7 months ago)
Launch vehicle
FALCON 9
Launch site
Air Force Eastern Test Range (AFETR)
Object type
Payload
Rocket body
Debris
Shape & HBR
Box + 2 Pan, 14.5 m
Radar Cross Section
33.884 m², Large (>1 m²)

Expand to show TLE details & history
Last TLE update: 14 hours ago

TLE from 14 hours ago
0 STARLINK-32917
1 62921U 25027Q   25258.40144979  .00069383  00000-0  25024-2 0  9990
2 62921  43.0003  38.8522 0001114 181.6954 178.3894 15.27643464 34730
Epoch: 2025-09-15T09:38Z
TLE epoch observation values (Epoch: 2025-09-15T09:38:05.261Z)
Latitude
-0.00004°
Longitude
-100.27639°
Altitude
483.398 km
Speed
7.625 km/s
True Right ascension
02h 35m 24s
True Declination
0° 00' 00"
Sunlit
Object was in full shadow at epoch
Visualization orbit readout
Latitude
Unknown
Longitude
Unknown
Altitude
Unknown
Speed
Unknown
Apparent Right ascension
Unknown
Apparent Declination
Unknown
Sunlit
N/A
Visualization observer readout
Local Sidereal Time
15:50:43
Azimuth
Unknown
Elevation
Unknown
Doppler factor
Unknown
Orbital elements
Apogee altitude
485.569 km
Perigee altitude
484.04 km
Semi-major axis
6,862.941 km
Eccentricity
0.00011
Inclination
43.0003°
RAAN
38.8522°
Arg. of periapsis
181.6954°
True anomaly
178.38976°
Mean anomaly
178.3894°
Eccentric anomaly
178.38958°
Mean motion
3.81749 °/min
Orbital period
94.3 mins
BSTAR
0.0025024
Loading maneuver chart data...
Computing Atmospheric mass density...
Loading historical data...
Loading historical data...
Loading historical data...
Loading historical data...
Loading historical data...
Loading historical data...
Loading historical data...

Documentation

Showing up to 5 results
|